sat.trackr.live / text

‹ back to catalog

STARLINK-37599

NORAD 69360 · 2026-123H

PAYLOAD ACTIVE UNKNOWN

§ Identity

Operator
Country
US
Launch date
2026-06-04
Launch site
AFETR
Launch vehicle
Mass (kg)
RCS (m²)

Purposes: comms

External: N2YO · Heavens-Above · Gunter

§ Orbital elements

Epoch: 2026-09-20T01:29:39.676128Z

Period
93.85 min
Inclination
53.1588°
Eccentricity
0.0001149
Mean motion
15.34406087 rev/d
Perigee alt
461.9 km
Apogee alt
463.5 km
Semi-major
6,840.8 km
B*
4.2972e-4
RAAN
143.7083°
Arg perigee
99.2429°
Mean anomaly
260.8703°
Rev number
1,680

§ Raw data

STARLINK-375991 69360U 26123H   26263.06226477  .00014173  00000+0  42972-3 0  99932 69360  53.1588 143.7083 0001149  99.2429 260.8703 15.34406087 16801

JSON: /api/v1/satellites/69360 · /tle

For live sub-satellite position, see the globe view (requires WebGL).

§ Visibility from observer

Set your observer location to see the next 7 days of passes ≥ 10°. The values pass through the URL so the page stays shareable.

No JS? Fill the form by hand. The geolocation button needs JavaScript.